GFSGBSN_850_spd_105.txt.gz
Wind_Speed
30 31 33 35 38 42 44 45 42 37 38 38 33 34 31 29 27 28 30 31 31 28 25 24 21 20 18 9 18 20 23 20 17 14 10 9 10 6 4 4 5 7 6 9 14 14 16
28 29 31 32 34 35 37 39 40 41 43 40 38 37 33 32 30 30 31 34 29 24 24 22 21 19 14 9 10 8 9 11 17 21 16 16 7 11 3 4 5 2 6 9 7 12 9
27 28 30 31 32 32 33 34 37 40 43 43 42 41 40 34 37 32 33 33 30 23 21 19 19 18 17 30 18 21 16 14 11 9 11 10 9 6 5 3 5 6 7 6 10 11 8
26 27 28 30 33 34 36 36 37 37 38 43 44 39 40 37 38 36 33 31 27 21 19 16 16 15 14 19 19 22 23 19 16 14 12 8 7 7 4 6 2 3 2 5 1 3 3
29 30 29 30 32 34 36 38 40 40 40 40 41 41 39 39 32 34 32 27 23 17 17 14 12 11 14 12 12 7 17 21 17 17 14 7 7 7 4 2 3 0 8 5 6 3 1
30 31 32 31 32 33 36 38 41 41 41 40 38 42 37 37 33 30 33 27 18 14 13 9 9 7 13 10 4 6 6 12 13 18 14 8 7 5 4 7 8 4 5 4 5 3 9
30 31 32 32 31 33 35 37 39 41 42 40 35 34 40 36 31 31 30 18 8 2 16 14 7 8 5 4 11 8 9 11 14 10 8 7 7 13 18 11 9 6 7 13 11 12 5
28 33 36 37 35 34 36 37 40 39 40 37 34 40 36 35 33 33 30 11 8 5 10 18 27 34 29 15 6 16 13 12 9 9 6 4 13 13 8 11 9 8 10 11 9 12 5
30 35 40 42 40 38 39 39 40 39 36 34 30 28 36 41 33 35 29 20 15 7 3 13 25 25 27 28 17 19 22 15 7 10 11 11 4 10 9 7 8 10 10 8 10 9 7
32 36 39 42 39 40 39 39 38 35 32 29 29 36 43 36 34 28 23 14 10 6 3 8 7 11 14 14 12 35 24 18 6 15 8 9 11 7 6 7 9 11 11 14 13 4 5
32 38 42 41 38 38 37 37 29 26 24 26 29 37 37 36 31 25 15 21 17 5 2 1 5 2 8 18 2 12 26 15 11 8 7 7 6 9 14 14 10 8 7 11 10 7 3
29 36 38 40 35 35 33 25 21 21 24 28 33 42 41 41 24 19 27 28 22 2 6 3 6 7 8 10 3 6 17 6 5 5 3 3 2 4 5 4 7 1 3 3 1 3 6
25 32 37 40 34 33 27 23 20 24 25 28 38 37 45 35 28 28 31 23 5 5 5 5 5 8 7 7 3 3 11 9 6 6 4 1 1 1 1 5 3 1 4 3 3 4 4
25 29 33 34 33 29 20 19 20 24 26 31 45 50 40 33 38 44 41 3 4 5 6 3 2 8 4 4 1 2 8 7 4 3 3 6 3 1 3 2 2 2 3 4 5 4 1
23 23 25 27 31 25 19 23 24 27 44 54 54 44 39 34 38 41 21 3 7 6 3 2 3 4 1 3 4 4 3 3 2 4 4 4 3 1 4 3 1 2 2 2 1 1 4
20 18 19 16 17 4 13 20 32 39 51 50 47 37 29 30 33 31 3 4 5 3 2 2 4 1 4 1 3 3 3 1 4 1 1 5 3 2 2 1 7 2 2 2 1 4 6
16 17 15 15 7 19 34 44 50 49 42 36 39 13 34 30 33 12 3 5 3 1 2 2 3 3 5 3 3 2 3 2 2 3 2 2 1 2 3 1 2 2 1 1 1 3 4
18 19 16 10 13 18 14 9 10 15 14 16 9 3 30 30 4 3 4 4 4 3 4 1 3 6 4 6 6 4 3 2 3 3 4 2 3 2 1 5 3 4 4 3 3 3 3
20 16 13 14 11 12 15 17 18 19 22 22 7 8 21 22 3 3 5 3 2 1 3 2 4 3 2 4 4 4 4 3 4 3 6 5 2 3 2 1 1 3 4 4 3 2 7
23 18 11 12 14 13 13 15 17 25 27 16 9 4 4 7 3 7 7 7 7 3 2 5 3 2 3 3 2 5 4 2 3 3 6 3 3 4 4 3 3 2 4 5 4 4 8
26 15 12 14 15 17 16 19 29 26 22 8 5 3 9 7 4 5 4 6 6 4 3 4 3 2 3 3 3 3 3 2 4 3 3 2 5 5 5 5 4 9 11 13 15 15 12
20 14 12 18 17 17 19 24 33 29 17 3 4 7 9 13 7 7 4 4 6 4 2 2 6 4 3 3 2 4 5 2 3 2 2 0 3 2 4 9 10 15 16 17 18 20 19
22 17 14 17 20 18 19 24 27 25 13 3 3 10 10 9 5 4 4 4 6 7 7 5 9 4 6 3 3 3 3 5 4 5 4 4 5 3 3 1 8 13 8 8 9 11 14
23 19 15 17 20 18 19 24 24 27 13 1 2 6 5 3 3 3 6 7 8 3 6 4 7 3 2 0 2 3 4 6 4 7 6 5 4 2 2 2 4 2 4 4 9 1 8
23 22 18 17 22 18 18 16 16 25 10 8 4 3 5 3 6 11 12 12 13 14 6 5 4 4 2 2 1 1 1 2 1 2 8 9 6 2 2 3 8 2 4 5 4 0 8
22 20 19 15 20 13 13 13 19 15 11 10 7 6 7 7 1 10 9 9 5 3 3 3 4 3 3 2 2 1 1 1 1 4 7 7 8 5 2 3 3 2 12 12 8 4 9
22 17 20 16 18 15 14 14 15 11 8 9 8 12 10 11 4 6 4 5 7 5 3 2 1 2 2 2 2 1 1 1 1 1 2 5 4 8 5 3 3 10 17 13 4 4 9
21 17 15 17 17 13 12 11 12 10 8 9 12 17 12 10 9 9 7 7 7 5 3 6 3 2 2 3 2 2 0 2 1 2 1 3 5 3 3 3 4 19 3 5 3 9 9
21 19 16 18 19 14 10 9 9 11 11 12 17 14 26 16 20 20 17 13 9 6 14 4 3 2 3 3 2 2 1 1 2 1 4 2 3 2 2 2 4 9 9 9 8 9 10

GFSGBSN_850_spd_108.txt.gz
Wind_Speed
26 27 27 28 28 29 31 33 36 38 38 38 35 32 33 31 28 28 27 28 29 30 29 29 26 22 18 7 14 18 18 14 12 11 9 9 10 10 12 6 11 16 16 16 17 18 20
23 24 25 26 26 27 28 30 30 32 34 35 35 33 34 32 31 31 29 33 31 30 30 31 26 20 11 11 12 12 10 13 13 16 18 17 12 14 10 10 12 4 9 12 12 14 17
21 22 22 23 24 25 27 29 29 29 30 30 31 32 33 33 32 32 32 32 30 31 30 30 22 18 13 22 19 25 19 16 14 12 14 14 12 12 6 9 13 13 16 16 18 20 16
24 23 23 24 24 25 26 28 29 31 32 32 32 31 29 32 31 30 30 29 31 29 27 23 18 12 13 17 21 22 20 20 15 12 10 7 10 12 11 9 10 10 13 13 3 5 8
26 25 25 28 27 27 27 27 29 30 33 34 33 33 32 29 31 29 31 28 31 26 24 17 12 8 14 14 13 9 17 16 17 13 11 3 8 13 8 12 12 13 14 14 10 10 11
28 27 28 29 29 28 28 29 30 30 32 34 34 33 31 30 26 30 27 28 26 25 13 8 9 8 15 11 7 7 6 12 13 16 12 12 10 11 12 12 15 15 17 14 13 5 11
26 25 27 28 31 32 30 31 31 32 32 32 34 32 29 27 32 32 29 24 12 6 14 15 11 11 4 4 8 8 12 12 14 19 19 20 14 20 22 19 21 15 15 17 15 14 14
24 25 27 29 32 35 33 31 32 33 34 33 35 29 26 28 34 31 24 18 17 7 8 21 26 28 26 12 13 16 14 16 19 19 19 13 22 22 19 18 17 17 18 18 14 12 9
24 26 29 32 36 36 34 32 32 33 33 34 33 27 25 30 34 31 31 27 25 16 3 15 22 26 24 22 23 29 22 24 17 21 23 23 10 9 15 18 19 19 19 16 14 14 16
26 29 32 36 38 38 35 34 33 32 33 34 29 25 25 36 32 33 35 27 20 9 1 8 9 11 16 12 12 31 30 24 15 21 20 16 21 11 13 20 16 18 17 15 16 12 10
28 29 31 36 36 37 33 32 32 32 28 23 22 26 39 41 32 37 30 20 17 7 5 3 4 2 8 16 8 7 31 32 25 17 12 12 10 16 21 18 14 13 10 14 14 13 13
29 27 31 35 34 37 30 29 31 30 20 18 23 33 36 40 32 31 24 27 19 4 8 2 6 8 9 14 6 3 25 24 23 13 15 18 3 7 10 16 18 8 10 11 10 10 12
28 26 30 35 36 37 28 27 31 23 19 18 27 32 33 37 36 29 39 29 3 5 5 10 9 8 11 9 11 9 17 21 12 17 19 16 15 4 4 8 8 11 11 8 9 8 10
29 25 27 33 34 37 26 26 25 20 20 24 27 28 40 38 33 40 40 3 8 6 13 3 4 8 10 9 6 7 16 17 9 12 9 13 10 10 3 6 8 14 15 10 11 11 5
29 25 25 31 32 35 24 22 18 19 24 26 38 50 43 32 42 46 24 5 7 8 7 8 7 11 12 10 6 10 14 19 17 7 11 9 5 3 5 2 2 7 10 4 6 8 9
30 26 25 26 28 31 26 13 21 25 31 33 45 33 29 47 50 37 3 5 7 6 5 8 14 11 13 13 12 10 13 3 6 1 4 3 2 2 2 1 1 4 3 3 4 5 12
29 28 25 21 21 21 18 11 16 35 35 43 35 14 24 46 42 15 4 4 8 4 5 6 9 7 7 7 9 9 8 5 6 3 4 6 9 5 1 6 9 5 6 5 5 6 7
29 28 27 23 20 16 7 19 39 47 43 36 16 4 31 44 4 3 4 8 5 1 1 2 2 2 8 1 6 4 4 3 6 11 8 3 2 8 8 1 6 7 9 10 8 10 8
30 28 28 23 23 15 17 16 26 28 22 21 9 9 22 22 5 7 8 7 8 13 10 6 3 5 4 4 1 4 3 3 6 3 7 6 4 5 4 5 4 6 7 6 4 3 12
30 31 30 23 22 19 17 24 21 18 17 17 9 5 5 3 1 13 10 7 8 2 3 3 4 4 7 7 7 7 7 2 2 5 7 4 5 8 8 5 2 6 12 10 8 5 12
28 34 31 22 23 23 20 20 21 24 24 13 5 5 11 8 6 11 12 12 14 9 5 7 5 8 9 6 9 8 8 8 5 6 3 2 5 8 9 7 6 9 12 15 18 17 17
31 18 30 21 22 23 22 20 22 25 17 4 8 6 11 18 15 13 10 15 16 9 9 8 6 8 8 6 7 11 9 8 6 5 4 2 2 3 9 10 11 14 16 19 19 18 21
29 30 21 16 22 25 22 21 27 23 15 3 5 14 12 13 13 13 12 14 15 12 5 4 11 9 8 8 8 9 5 6 4 5 6 5 4 4 6 3 6 12 17 16 16 12 13
29 21 19 17 20 20 21 25 27 26 13 7 11 11 11 9 12 14 13 13 15 5 9 9 8 6 5 6 6 4 3 3 3 5 6 5 6 4 3 3 7 4 6 5 7 12 4
30 23 19 21 22 20 21 23 37 27 11 7 12 2 5 8 12 10 16 16 17 17 14 12 7 5 6 5 4 5 4 5 3 3 9 10 9 5 4 8 7 5 1 4 4 2 4
26 24 19 23 22 24 21 23 28 23 9 7 5 5 5 8 4 18 14 17 13 8 7 5 5 6 4 2 2 4 3 2 4 6 3 8 12 7 4 4 3 4 7 8 5 8 5
28 24 17 22 22 16 16 17 13 14 9 8 5 8 7 9 6 12 6 9 8 6 5 6 6 4 2 2 3 3 3 0 3 3 4 6 7 10 9 5 1 6 14 10 6 5 6
24 24 16 29 18 15 17 19 17 13 7 9 7 12 11 9 9 6 7 7 7 7 5 9 6 2 3 3 2 3 2 2 1 4 1 4 6 4 4 5 3 16 1 5 3 5 6
20 26 20 21 14 15 15 12 16 9 10 11 10 14 27 14 12 21 19 13 8 5 13 7 2 4 2 2 2 3 3 2 1 3 1 2 4 2 4 4 5 8 8 6 6 7 9

GFSGBSN_850_spd_114.txt.gz
Wind_Speed
24 24 25 26 25 25 24 24 25 25 26 26 26 26 26 26 27 26 23 26 24 26 26 25 24 24 23 11 21 23 20 19 17 13 10 11 14 16 17 15 20 20 21 27 29 27 25
18 20 21 23 23 23 23 22 23 23 23 24 24 23 22 22 22 22 23 24 24 25 26 26 23 21 15 19 15 15 16 14 14 10 11 12 14 17 23 23 21 27 30 29 23 24 27
17 17 19 20 18 18 18 18 18 18 19 19 21 22 22 22 22 22 21 20 22 22 24 23 23 23 18 28 23 18 18 16 15 15 17 17 16 17 15 17 19 22 20 22 25 30 26
19 20 20 20 19 18 19 19 19 19 19 19 20 21 21 21 22 23 22 22 17 21 23 23 19 19 15 19 23 24 22 25 20 15 18 17 17 21 23 25 29 24 24 21 18 22 28
21 22 21 21 20 19 20 20 20 21 20 21 22 22 22 22 20 20 20 19 15 22 20 21 17 10 19 6 12 9 16 21 16 18 15 14 14 21 18 16 17 16 20 24 28 23 21
21 21 21 22 21 20 21 21 22 21 21 21 22 22 21 21 20 16 15 16 14 19 20 15 14 9 16 17 15 6 7 11 15 12 14 13 10 13 12 13 18 19 19 23 24 21 16
22 21 21 21 22 22 22 23 24 23 22 21 21 20 20 18 15 19 13 11 8 9 15 18 14 14 9 6 7 8 7 8 14 16 15 19 13 16 18 20 24 22 25 28 26 26 27
25 23 20 20 20 23 23 24 25 25 24 22 21 20 18 17 15 16 14 13 13 8 16 23 29 33 33 28 35 28 17 15 16 19 18 17 22 21 22 24 25 27 28 28 25 26 22
26 26 24 23 22 22 22 24 24 25 22 22 21 19 19 17 16 18 23 22 13 5 9 24 34 38 35 27 35 33 28 28 22 22 22 23 26 23 24 25 27 25 25 25 29 26 27
33 32 32 28 27 24 24 25 24 24 22 21 21 19 19 17 15 24 25 19 13 3 5 12 16 15 16 30 26 32 32 32 29 30 27 27 24 27 27 27 26 22 21 26 25 20 16
30 29 26 28 26 28 26 27 26 24 22 21 21 18 19 18 14 17 17 23 13 4 4 6 2 2 5 21 6 4 20 27 26 29 26 30 25 26 23 25 24 23 22 18 21 14 20
30 27 26 25 26 26 27 28 28 26 23 22 23 19 23 19 30 20 19 18 15 3 11 6 7 7 9 15 19 9 7 12 19 22 20 28 31 24 16 18 20 15 17 20 21 13 15
34 31 30 28 27 28 29 28 29 27 25 23 23 21 23 24 32 25 22 26 4 8 6 14 18 12 12 15 16 17 17 16 11 13 18 21 25 26 15 17 14 14 13 7 4 7 15
32 32 31 32 30 28 29 30 30 27 25 25 23 23 21 29 28 31 32 5 10 19 26 9 3 17 17 14 19 17 14 16 13 16 14 12 12 16 15 18 14 9 10 6 6 7 13
31 32 30 31 31 30 30 31 32 28 26 23 22 15 25 34 37 40 28 8 14 22 19 25 26 18 19 17 18 16 13 16 16 15 16 7 9 2 9 12 11 12 14 17 6 13 11
32 29 31 30 31 30 30 31 32 29 27 18 25 24 27 33 34 43 10 16 20 21 23 22 20 16 21 20 21 18 15 10 13 17 15 11 12 2 6 4 9 8 2 3 2 4 10
32 32 33 33 30 31 30 31 31 30 28 20 26 14 18 33 44 15 9 13 21 29 26 17 20 20 17 14 21 8 12 11 1 7 3 8 3 2 8 9 14 10 11 7 4 5 4
33 35 34 34 35 32 30 28 29 29 23 24 29 5 20 35 7 3 8 6 10 18 26 22 18 17 16 16 17 16 11 5 10 3 4 6 2 6 11 5 7 6 9 12 9 11 8
36 34 34 34 34 35 30 28 24 18 22 35 17 8 32 35 7 7 10 11 11 14 18 17 19 16 13 12 7 12 3 6 3 5 4 6 1 5 5 8 10 8 12 11 9 9 14
35 34 35 35 34 36 33 28 26 20 21 20 11 4 4 18 8 13 14 9 16 16 12 21 12 18 13 13 10 4 8 3 3 3 6 7 6 7 5 2 5 7 13 14 13 9 12
33 34 34 34 34 35 35 29 31 27 20 15 7 4 9 6 11 4 14 9 17 8 15 18 12 16 15 10 9 7 8 8 6 4 1 3 8 11 14 17 10 13 11 11 14 13 14
31 32 33 32 33 33 31 31 35 32 32 20 8 5 11 3 28 17 11 13 17 15 14 17 14 16 8 7 11 11 14 11 7 13 9 6 6 3 11 13 13 15 15 15 17 16 17
32 32 32 31 32 34 30 31 34 37 36 15 16 10 6 5 15 16 11 14 18 17 8 13 13 8 12 17 6 2 14 16 8 11 9 8 4 5 8 9 9 9 11 17 16 15 15
35 36 34 33 32 30 30 32 28 45 32 26 15 14 6 3 10 15 20 17 18 15 8 18 22 15 10 13 11 11 7 6 1 2 10 5 9 5 7 0 7 3 10 8 6 10 11
41 39 37 32 31 27 29 32 36 31 29 26 15 10 7 4 14 16 13 14 16 20 15 11 11 15 18 11 4 5 2 2 6 8 8 7 7 5 6 7 11 4 5 4 4 3 8
23 22 25 28 29 28 25 29 30 35 26 16 13 10 6 3 11 22 20 21 8 13 10 9 10 11 11 2 3 6 5 6 6 5 8 8 8 7 6 7 7 6 6 6 2 5 8
23 22 22 23 29 26 29 27 30 29 33 15 3 11 5 3 10 20 14 17 21 15 7 13 10 6 8 3 4 5 6 6 7 9 6 8 8 10 8 7 3 3 5 4 4 3 8
24 24 18 20 26 26 26 25 25 29 23 16 4 16 3 8 14 12 13 22 20 14 8 17 8 4 5 6 5 3 1 4 4 2 6 8 6 6 7 5 8 10 3 3 4 5 6
24 24 21 20 21 22 23 29 29 30 20 18 4 9 11 9 17 15 16 11 14 8 16 21 3 15 7 5 2 3 2 1 5 5 4 2 2 2 5 3 4 6 6 4 5 7 6

GFSGBSN_850_spd_117.txt.gz
Wind_Speed
24 24 23 24 25 26 25 24 22 23 22 22 22 23 22 23 22 21 22 22 18 20 21 23 21 24 21 12 25 23 20 18 19 16 13 4 11 14 6 7 13 10 8 20 25 24 24
21 20 20 21 22 22 22 22 21 20 20 20 20 20 20 20 20 20 19 19 20 19 18 20 17 22 21 16 18 8 11 16 19 10 8 5 8 13 15 11 8 18 25 26 29 26 27
18 18 17 17 17 15 16 16 15 15 15 15 15 16 16 17 18 18 19 19 19 17 15 15 18 22 22 36 25 22 25 20 18 13 14 14 16 15 11 9 17 17 13 18 10 16 15
20 20 20 19 18 15 15 15 14 14 14 15 15 16 17 17 17 17 16 17 17 17 14 15 18 19 17 27 17 20 16 23 23 19 17 15 16 18 16 15 17 11 9 11 6 16 24
19 19 20 19 18 17 16 16 16 16 16 16 16 17 18 18 17 17 16 16 12 13 11 16 17 12 17 4 13 7 9 20 16 19 21 13 13 19 14 6 6 6 6 11 16 17 19
18 17 18 18 19 17 16 17 17 17 17 16 17 17 17 16 15 16 15 11 7 14 13 16 18 7 15 5 7 2 4 4 13 12 15 16 10 2 1 4 7 7 8 9 16 8 18
19 19 18 17 17 17 18 16 15 17 16 17 16 16 16 14 14 12 9 3 5 7 13 14 12 15 10 8 7 10 8 9 10 14 8 17 6 7 13 14 15 13 16 18 17 14 11
19 22 22 20 18 16 17 16 17 17 15 15 16 14 13 12 11 11 5 4 4 8 15 23 30 38 36 27 14 22 16 11 11 8 8 8 17 12 14 14 16 16 18 19 19 18 15
26 23 23 22 21 18 19 18 17 16 14 14 13 12 12 12 11 12 13 13 6 8 8 14 30 26 31 28 26 33 26 26 14 10 11 18 9 12 17 19 18 19 18 17 20 10 10
23 27 27 28 28 27 23 20 19 18 16 13 13 11 11 11 10 10 15 8 4 2 4 7 8 8 16 23 10 30 29 28 10 17 16 17 16 17 19 19 14 20 12 17 16 10 6
28 27 25 24 26 23 23 21 22 21 18 14 14 11 10 9 3 6 3 12 9 2 4 4 3 7 11 21 3 5 22 25 20 18 7 26 20 18 21 22 17 20 10 13 12 11 9
27 27 27 26 22 23 22 21 20 21 19 15 15 11 12 13 11 9 4 16 11 3 10 5 9 7 6 18 8 5 5 18 24 16 13 21 26 15 18 20 7 9 5 5 5 1 5
31 32 33 30 27 25 24 22 22 22 19 15 16 14 16 14 11 17 12 22 3 6 6 5 7 8 12 11 11 10 10 8 6 5 7 14 18 20 20 15 3 3 3 4 4 1 10
32 30 29 31 30 28 27 25 22 22 20 17 16 19 21 22 18 22 28 4 8 11 16 5 1 8 8 10 11 11 9 10 11 12 6 7 8 2 6 5 7 6 5 5 4 2 5
30 31 30 28 28 28 27 25 22 22 19 16 18 20 19 14 22 31 27 9 9 9 7 13 20 18 16 16 7 7 9 11 13 10 10 2 4 4 4 2 1 1 5 7 2 5 6
32 31 29 29 27 27 26 25 24 22 18 15 18 18 16 14 29 38 11 17 15 13 15 18 13 8 14 11 9 8 7 3 6 9 5 7 7 3 3 4 3 4 0 3 2 3 4
32 31 29 28 29 26 25 24 25 22 19 15 15 6 10 21 32 29 10 12 18 24 23 9 18 18 17 10 7 3 1 7 9 5 8 4 4 0 3 3 4 2 2 2 4 4 3
29 29 30 28 29 28 28 28 24 22 18 19 20 5 11 35 12 4 6 11 13 18 19 21 11 16 14 9 7 6 8 8 22 2 4 1 4 3 7 4 4 4 6 9 5 5 3
30 31 31 31 29 28 29 27 26 22 17 12 12 14 20 38 7 6 11 15 12 13 10 12 11 15 12 3 3 2 5 5 1 3 5 5 1 1 4 3 2 4 4 5 2 4 3
32 32 32 31 31 30 29 29 27 23 20 16 7 4 6 19 11 7 9 17 20 13 15 19 15 10 7 5 3 3 5 2 2 6 10 6 3 5 6 1 1 3 7 8 4 3 4
31 32 32 33 33 31 30 29 29 25 23 21 9 6 9 5 13 6 10 6 22 15 16 7 6 9 3 5 7 8 4 3 3 5 3 4 3 3 6 9 8 8 15 8 7 7 6
30 30 31 32 32 32 31 31 29 27 26 29 8 5 7 3 20 15 7 8 19 18 12 8 11 10 8 7 10 5 3 4 3 2 5 2 1 3 2 7 10 11 10 11 7 5 7
29 30 29 30 31 30 29 30 29 30 32 23 22 12 6 6 9 10 16 16 15 13 13 18 16 6 7 9 6 2 8 14 8 8 7 4 3 3 3 2 5 4 4 3 6 6 3
28 30 30 30 31 30 30 30 30 31 36 32 22 13 2 5 9 15 12 21 17 19 12 12 21 6 6 11 5 8 10 10 3 8 8 7 5 3 2 2 3 2 9 8 4 10 7
32 31 30 31 32 31 31 30 31 32 36 34 29 19 8 3 7 13 18 16 22 20 13 13 11 13 16 18 4 2 2 3 2 2 5 5 4 2 3 3 4 2 5 4 3 2 8
33 32 33 34 37 36 33 31 32 33 33 43 39 29 9 2 8 18 16 9 3 4 3 4 10 26 22 3 3 5 4 5 3 4 5 5 5 4 1 3 4 2 4 8 6 3 6
30 35 31 27 27 30 30 30 28 27 31 40 27 28 11 5 11 23 12 11 8 6 4 5 5 7 9 2 2 2 3 7 6 7 5 3 2 5 2 3 1 3 4 1 2 3 4
20 15 20 22 27 29 29 28 28 28 34 30 20 26 16 6 7 18 15 16 15 17 7 14 6 1 1 3 3 3 2 2 4 1 6 5 4 3 2 2 6 7 3 3 2 5 3
21 18 19 22 17 32 32 27 30 38 30 28 6 18 17 3 5 15 17 13 20 13 17 20 6 8 9 2 2 3 2 3 5 2 1 1 4 3 2 2 6 6 6 4 3 7 6

GFSGBSN_850_spd_120.txt.gz
Wind_Speed
22 23 22 22 21 21 20 19 19 18 18 18 18 19 19 20 20 20 20 19 18 19 22 20 20 17 19 12 20 15 22 17 10 12 12 7 5 2 2 6 11 5 5 10 16 23 24
21 20 20 20 20 19 18 18 17 17 17 17 17 17 17 18 18 17 17 18 18 18 18 17 16 14 16 9 9 1 8 11 9 10 11 4 4 10 11 4 3 10 16 17 16 21 21
18 18 16 16 15 14 14 14 14 14 13 13 12 13 14 15 15 15 15 17 17 18 16 15 14 16 21 31 16 19 22 20 13 12 15 11 11 9 9 8 10 11 10 11 6 12 8
19 18 17 17 17 14 12 12 12 12 12 13 12 13 14 16 16 16 16 16 16 17 15 14 12 15 15 21 11 6 8 23 20 23 18 15 15 13 7 9 10 7 6 2 5 3 11
21 20 20 19 17 15 13 13 13 13 14 13 13 14 15 17 16 15 15 14 14 14 11 9 11 11 16 3 7 3 7 10 15 14 14 17 13 12 10 2 4 3 7 5 5 9 5
17 17 16 16 16 16 15 15 14 13 14 13 13 14 14 14 14 13 11 11 11 8 10 11 14 8 10 2 2 3 1 1 8 8 7 16 10 2 2 4 5 7 6 4 3 6 9
16 15 14 13 13 14 14 14 12 12 14 12 13 14 14 13 14 10 7 5 4 5 11 12 5 13 11 12 10 6 9 7 7 7 5 6 4 7 15 10 8 6 9 15 11 7 10
20 19 17 17 15 14 12 12 10 13 12 11 11 12 11 12 11 9 7 5 4 5 13 24 28 36 37 25 11 26 13 11 10 7 2 3 8 11 9 10 12 13 14 15 16 12 13
24 25 22 20 19 16 13 10 10 12 10 8 7 8 7 8 8 10 12 13 5 7 7 12 22 17 22 20 17 29 20 11 4 5 9 10 8 7 11 13 14 17 12 13 16 10 3
23 23 24 24 21 20 20 18 14 13 12 9 7 7 6 6 6 7 11 4 6 5 4 7 6 7 11 9 7 14 23 19 6 12 9 9 18 18 16 12 10 17 6 11 8 7 8
25 24 22 19 26 25 23 20 16 16 15 11 9 6 7 6 6 7 3 13 7 0 4 2 5 5 15 12 2 3 8 17 9 10 4 7 2 5 10 18 8 20 11 7 3 5 3
29 27 26 25 24 22 21 17 14 14 14 12 11 8 10 8 11 8 3 14 6 5 7 5 9 9 7 8 3 6 7 13 13 8 9 13 19 6 15 16 13 17 4 7 4 1 4
31 30 30 27 26 23 20 18 16 15 13 13 12 11 11 10 8 15 13 14 3 4 3 5 6 7 10 8 4 3 5 8 7 3 6 10 14 6 12 13 3 3 5 2 3 1 6
28 29 30 28 27 28 26 22 19 17 13 12 13 15 14 16 11 22 21 3 6 6 9 3 3 6 6 5 7 9 3 5 7 6 4 5 6 5 3 5 6 6 8 5 4 3 4
33 33 31 30 26 24 22 24 21 18 14 13 15 15 19 15 18 28 23 6 8 6 2 3 5 4 7 8 10 11 13 12 10 12 9 5 6 2 3 3 6 2 3 6 1 2 2
32 30 31 29 26 27 23 21 20 17 14 12 14 14 22 11 20 38 11 16 10 5 6 4 3 5 4 1 4 4 7 1 1 9 8 7 9 1 1 2 1 5 7 3 2 3 5
32 31 30 28 27 25 23 21 19 17 13 12 7 6 5 20 33 29 11 11 15 21 10 4 7 7 7 5 4 5 4 0 2 0 7 1 5 3 2 4 7 2 2 2 5 4 3
30 32 30 28 27 26 23 21 19 17 12 12 7 3 8 24 14 9 15 15 19 10 21 17 10 17 14 8 5 5 8 5 4 2 3 2 2 4 6 4 4 3 5 6 4 4 4
32 29 29 27 27 28 25 22 21 19 18 15 8 14 10 30 9 9 10 17 15 14 8 10 10 9 6 10 4 6 2 2 9 4 7 7 2 1 5 4 3 3 4 3 2 4 12
31 30 30 30 30 28 28 26 23 21 21 19 7 3 10 24 12 11 14 15 17 15 21 20 8 7 7 5 6 4 3 1 2 3 6 7 4 6 9 3 4 2 5 2 5 3 3
32 32 31 31 31 31 30 29 27 24 23 23 14 5 7 5 17 17 13 7 20 17 20 16 8 19 7 5 5 6 4 3 2 3 2 5 5 4 4 2 3 3 9 14 8 9 10
31 32 33 34 33 32 31 30 29 26 25 29 11 7 7 4 26 20 15 19 24 15 16 15 16 8 10 15 7 6 6 5 5 4 4 1 3 2 2 3 4 7 11 9 8 6 5
30 31 32 32 32 32 32 32 31 29 29 28 25 21 7 6 7 13 21 28 21 14 17 32 19 8 12 16 7 4 6 7 4 7 7 6 5 2 3 1 1 4 6 11 7 4 1
30 31 31 31 30 31 31 30 30 32 34 37 23 20 12 6 7 13 13 22 24 20 17 11 26 15 8 9 8 5 2 8 13 11 9 6 6 3 2 1 4 1 5 6 11 6 6
28 29 30 31 31 31 30 30 31 31 32 38 36 23 12 5 6 9 15 14 21 27 24 23 19 21 19 12 3 4 0 2 1 5 6 5 4 3 3 3 1 1 4 2 3 2 3
29 29 30 30 30 30 30 31 30 31 31 36 39 38 14 3 11 12 9 18 10 9 12 4 13 22 22 3 2 5 5 5 5 3 5 5 4 4 2 3 5 5 1 6 3 4 4
34 33 33 33 33 32 32 33 32 31 30 35 36 36 20 9 12 8 7 11 12 4 4 3 11 13 14 2 3 3 3 5 6 8 6 3 2 5 2 2 4 3 1 1 3 5 2
33 32 33 34 34 34 34 37 35 31 32 38 36 29 36 10 13 18 25 13 13 15 4 8 7 2 2 5 3 3 3 3 4 2 5 5 5 3 3 2 7 2 2 5 2 3 2
23 29 34 32 32 30 31 33 36 35 34 37 28 31 33 18 9 15 22 33 32 30 19 15 5 5 8 3 2 2 1 2 4 2 2 0 5 4 4 4 5 5 6 3 3 6 3

GFSGBSN_850_spd_123.txt.gz
Wind_Speed
25 24 24 23 22 21 21 20 21 20 18 19 19 19 19 20 20 20 20 20 20 19 20 21 22 21 17 11 13 11 16 20 20 8 5 4 3 1 1 5 10 5 4 9 14 20 19
22 22 22 21 20 19 19 19 18 19 19 18 18 18 17 17 17 17 16 16 16 18 18 20 21 19 15 8 4 5 9 10 8 7 4 2 1 7 7 3 2 5 11 12 12 25 22
20 19 18 18 18 16 16 16 17 15 16 16 15 14 14 14 13 14 15 14 14 16 18 18 18 15 19 25 12 16 20 22 13 13 11 6 5 6 8 7 6 10 5 5 8 13 6
20 18 17 16 16 16 14 12 13 13 13 14 14 14 15 13 13 14 14 15 15 16 17 17 16 12 14 19 16 5 7 10 19 17 14 9 5 9 5 8 9 6 3 2 6 6 6
22 20 20 18 18 17 15 14 14 14 14 15 14 15 16 14 13 13 13 14 15 16 15 12 11 9 16 5 3 1 5 6 5 14 16 13 9 10 6 1 4 3 3 4 6 8 5
20 20 20 19 17 16 16 15 14 14 15 15 14 15 16 14 13 11 11 12 14 14 9 13 10 8 13 6 3 3 4 2 3 10 7 10 7 2 2 3 5 5 3 3 2 7 13
16 16 16 13 13 14 13 15 14 12 14 14 14 15 15 14 13 11 10 9 4 4 8 11 3 10 9 5 6 7 6 5 6 7 5 7 4 7 14 9 4 2 3 5 5 10 8
21 19 17 14 14 14 12 11 11 11 12 11 12 13 13 12 12 10 8 5 2 5 12 19 29 35 37 21 13 25 13 9 8 5 3 2 5 11 7 6 6 7 10 10 6 11 7
26 23 20 19 19 18 14 11 11 10 11 11 10 9 9 10 9 8 10 7 6 4 6 14 21 17 24 15 14 29 21 12 3 6 7 6 6 7 8 6 8 10 8 11 11 6 5
27 26 26 25 23 19 18 15 13 11 12 10 10 8 7 7 6 6 4 2 11 2 4 6 5 6 8 8 7 9 12 15 4 9 5 6 13 12 7 6 7 9 9 11 9 4 9
23 24 25 23 24 24 20 19 19 17 16 13 11 10 7 6 5 4 1 6 10 1 4 1 4 2 11 9 3 1 14 14 9 7 6 7 3 3 6 14 7 8 8 11 13 4 5
32 27 27 24 21 20 22 24 20 15 15 13 12 12 9 8 10 4 5 10 7 6 7 2 8 6 5 4 3 8 7 5 8 4 4 7 9 4 7 10 10 6 4 0 3 2 6
27 28 28 25 24 21 20 19 17 15 14 13 12 13 12 11 5 14 9 11 3 4 4 4 5 5 4 5 3 4 6 5 6 4 5 2 11 7 11 6 5 5 3 2 2 1 5
34 30 29 28 25 24 23 21 18 16 15 12 14 14 16 14 10 17 14 2 4 5 7 4 3 3 5 5 5 3 4 5 6 2 3 3 6 6 4 8 8 6 8 5 4 3 4
35 32 31 29 24 25 23 22 25 20 17 13 15 16 19 15 17 19 14 6 7 6 4 3 4 3 4 7 7 8 7 7 8 12 8 6 6 1 3 3 7 3 3 3 1 1 1
31 30 32 29 29 29 25 21 20 24 20 16 17 17 22 12 19 22 6 13 8 5 4 4 4 3 2 2 1 5 7 6 9 10 6 4 4 2 2 2 2 6 7 3 2 3 5
36 34 33 32 30 29 26 23 21 23 20 19 14 5 5 21 21 17 11 11 8 16 5 2 3 3 2 2 2 3 4 4 2 1 6 5 6 2 2 5 8 3 3 3 4 4 4
34 32 31 32 29 28 28 24 24 22 21 20 12 2 9 25 14 13 13 12 13 9 16 13 4 4 5 4 4 5 6 4 5 2 3 0 3 3 7 4 3 3 7 7 4 5 4
33 31 30 31 31 29 27 25 25 23 25 23 8 9 12 26 8 10 17 20 25 11 5 5 7 9 7 9 7 8 9 3 9 4 8 7 2 1 4 2 2 4 4 4 2 3 8
33 32 33 29 29 29 28 28 28 26 24 21 8 3 11 17 18 10 17 21 16 18 20 28 6 3 3 12 6 5 3 3 3 5 4 4 4 6 8 4 3 4 4 2 5 3 5
32 32 32 33 31 28 29 30 30 29 27 27 14 5 7 5 16 14 11 8 18 19 21 17 9 20 11 5 4 6 6 3 5 5 4 5 6 4 3 2 3 3 4 6 7 9 7
32 33 32 33 33 32 32 33 31 31 30 32 10 6 8 6 10 16 17 14 25 23 11 13 16 10 9 17 18 17 7 5 5 3 5 2 3 2 3 2 3 10 8 8 10 11 12
30 31 33 33 34 35 35 34 33 33 33 23 26 18 8 9 4 11 18 27 24 16 15 22 19 7 13 20 16 21 12 5 5 7 6 5 4 3 3 4 2 7 11 16 11 1 1
29 31 32 33 34 36 36 35 35 35 37 36 30 22 10 7 7 10 14 24 26 22 17 11 24 16 35 18 8 4 1 4 6 6 5 5 7 3 2 3 5 1 3 2 3 2 1
29 30 31 32 33 34 35 34 34 35 37 41 33 25 15 9 14 15 18 16 27 28 24 22 27 21 17 10 2 3 1 2 5 8 10 5 5 3 4 5 3 2 2 3 3 4 3
29 30 31 31 32 32 32 32 32 34 36 39 42 37 17 4 15 21 8 10 5 6 6 19 36 28 16 3 5 6 6 4 5 6 12 5 7 4 3 3 6 5 3 4 3 5 5
30 30 30 30 32 32 32 32 31 33 35 38 39 39 33 13 12 16 11 9 10 11 3 4 8 7 15 4 3 3 4 5 7 8 6 5 3 8 2 3 5 4 5 3 4 6 6
34 32 31 31 31 31 31 31 33 32 34 36 36 36 39 23 27 15 20 17 9 15 5 5 4 4 3 4 4 5 4 5 3 2 5 7 6 3 3 2 7 9 4 6 4 6 5
34 35 37 36 35 33 34 34 33 33 34 32 30 34 34 29 12 16 30 34 28 21 17 15 3 4 9 3 4 3 2 2 5 3 2 1 5 5 5 4 1 5 4 5 3 2 4

GFSGBSN_850_spd_129.txt.gz
Wind_Speed
24 27 26 25 25 23 21 22 22 22 22 22 22 22 20 20 19 19 19 20 20 20 19 19 19 19 20 12 12 14 12 14 14 14 13 4 1 3 2 1 2 2 2 5 8 11 11
18 16 17 18 19 19 19 20 19 19 20 20 20 19 19 19 18 18 17 18 18 18 17 18 18 19 18 8 10 9 10 10 9 4 3 3 3 3 3 1 2 0 4 10 7 16 8
14 15 14 16 16 17 17 17 18 18 18 19 18 17 17 17 15 15 16 15 17 17 16 18 18 19 20 20 13 14 12 12 10 7 5 5 4 3 1 1 2 4 6 7 5 1 2
18 18 17 17 17 18 16 14 14 15 15 15 16 15 15 15 13 13 15 15 15 15 16 17 18 18 13 15 14 14 13 14 10 10 10 7 1 2 1 1 4 2 1 3 1 4 4
17 18 17 18 18 18 17 15 14 15 14 13 16 13 13 13 12 12 14 15 15 15 16 18 16 9 11 4 1 1 1 1 2 3 13 7 3 1 1 2 2 2 3 2 5 6 6
21 21 22 22 20 20 19 18 14 14 13 14 15 12 13 13 12 12 13 14 15 16 17 16 17 7 7 5 4 2 2 2 2 8 9 5 4 2 2 3 5 1 2 2 3 4 12
24 22 22 22 22 22 20 17 15 13 13 13 14 12 11 11 11 12 12 11 7 6 7 9 4 6 8 5 5 4 6 7 9 4 4 4 4 10 13 9 3 3 3 8 8 9 5
19 23 24 22 19 18 17 14 13 14 11 12 11 8 9 9 10 11 10 4 4 6 11 15 21 27 26 15 6 13 8 7 6 5 6 3 7 12 3 6 6 9 9 11 7 6 7
23 22 20 17 15 12 13 12 11 11 13 11 9 7 7 6 8 8 5 4 6 6 5 10 11 13 11 13 12 19 15 7 4 6 8 7 2 5 8 5 8 6 8 9 8 7 6
28 25 22 20 21 19 17 15 13 11 12 10 9 7 5 4 6 4 1 3 6 3 3 4 3 3 2 4 4 6 11 12 5 12 7 6 6 6 6 6 8 6 11 11 8 7 4
32 28 26 24 24 20 19 19 18 14 11 9 8 7 5 5 2 4 2 5 5 2 3 2 3 2 3 3 2 2 7 7 7 6 6 5 5 5 8 10 8 6 5 6 7 8 5
30 30 31 28 28 26 24 22 18 17 15 10 11 10 6 6 6 7 9 8 2 4 7 1 5 4 3 2 0 5 3 2 4 4 1 3 1 3 6 5 8 2 1 2 2 3 6
32 30 29 28 28 27 27 25 24 20 15 12 12 11 9 8 5 10 12 6 3 3 4 1 0 3 3 3 2 3 4 4 4 4 4 2 7 4 6 5 3 5 3 3 3 3 5
29 28 27 26 28 26 24 24 23 24 17 13 12 11 10 9 8 12 14 2 3 3 4 2 1 3 2 4 2 4 5 5 4 2 3 3 3 5 4 8 4 6 7 4 4 3 3
27 30 30 29 31 29 27 26 24 20 17 14 16 14 13 12 9 12 10 2 7 5 2 0 1 1 1 1 2 2 4 4 6 10 5 4 5 1 4 3 5 4 6 2 4 1 5
28 25 25 28 28 25 28 29 27 21 19 19 18 13 13 14 11 12 4 7 5 4 1 2 5 1 2 2 2 2 2 2 1 2 4 3 8 5 2 4 2 6 6 3 1 4 6
31 25 31 32 30 28 26 31 28 24 23 21 18 8 5 17 13 9 7 7 3 4 2 2 0 1 1 1 1 2 2 1 3 3 3 1 2 2 1 6 9 4 4 2 2 3 4
26 33 24 28 27 29 30 32 30 27 26 24 22 3 16 25 6 5 12 5 2 2 2 5 2 2 3 3 2 2 4 1 2 3 8 4 4 5 8 0 4 3 5 8 7 7 5
22 24 30 27 28 26 31 33 30 30 30 30 14 10 21 30 7 6 8 7 8 1 3 4 4 5 4 5 2 5 6 5 16 2 1 2 2 5 5 2 2 6 11 11 6 5 17
21 24 25 29 27 27 32 34 39 32 33 33 13 4 10 22 8 13 7 12 8 7 11 2 1 3 3 3 4 3 2 2 6 5 5 5 3 8 12 11 2 6 8 11 11 5 12
24 25 26 31 33 33 31 30 30 32 38 38 19 6 7 6 15 8 11 5 17 10 9 10 5 12 4 4 3 9 4 3 4 9 3 5 11 10 13 15 13 14 13 12 15 17 11
26 26 26 27 32 32 33 35 35 37 40 35 14 7 7 6 17 16 10 10 17 5 8 7 13 5 13 16 17 9 10 10 9 3 4 2 4 3 13 11 13 17 16 14 16 16 19
25 25 26 27 29 32 32 33 37 40 43 20 24 16 16 10 7 11 16 18 11 11 11 15 10 7 12 11 15 18 21 18 14 12 7 5 4 4 14 4 2 8 21 19 18 18 16
25 25 25 26 27 26 30 34 37 41 44 27 31 26 10 4 8 11 10 14 16 15 13 10 10 13 21 14 14 14 15 16 17 17 17 9 6 6 9 3 10 6 1 3 12 13 9
24 25 25 24 27 29 28 30 33 36 37 49 28 23 10 3 11 11 8 7 6 5 8 15 21 28 25 16 4 6 6 5 13 19 18 17 12 7 6 8 11 11 5 6 6 5 9
23 23 23 25 26 27 30 30 30 35 35 31 37 23 15 8 8 13 8 10 5 4 6 11 20 24 18 4 6 8 7 4 3 3 7 14 15 10 5 5 8 2 3 5 3 7 7
22 24 23 24 25 24 27 30 29 30 30 37 36 27 16 7 6 17 6 8 9 5 4 6 6 4 21 7 8 8 10 4 9 9 4 6 5 16 13 7 7 3 9 6 4 3 10
24 27 27 25 25 24 25 27 29 29 29 30 29 27 30 11 9 13 16 9 5 12 8 3 3 8 5 9 6 6 6 8 5 3 6 10 6 5 6 7 11 13 7 7 4 7 10
25 21 32 29 26 25 25 26 28 29 29 31 22 25 25 16 5 12 25 21 23 19 3 3 5 3 2 3 3 2 4 2 6 7 4 6 6 5 9 5 1 19 2 7 11 12 12

GFSGBSN_850_spd_132.txt.gz
Wind_Speed
32 30 30 29 28 26 26 25 24 23 22 23 22 21 21 20 18 18 19 19 19 19 18 18 19 19 18 8 10 13 11 11 12 11 5 5 4 3 5 2 4 7 3 5 6 9 9
27 30 29 29 27 27 26 23 22 21 21 21 20 19 19 18 18 17 18 17 17 17 17 17 19 19 14 12 12 11 7 6 6 1 2 2 3 3 2 5 6 2 5 10 9 12 10
15 14 16 16 14 14 16 16 17 17 18 18 18 17 18 17 16 15 16 16 15 15 16 17 18 18 17 16 12 10 9 9 8 4 3 4 2 5 2 3 2 4 9 8 5 2 4
9 12 14 15 13 13 13 13 14 15 15 15 16 16 15 15 14 14 14 14 14 14 16 18 18 16 11 15 14 12 10 13 13 9 6 6 4 4 5 1 4 6 5 7 7 3 1
12 13 12 15 14 15 14 13 13 14 14 15 15 14 14 13 12 12 12 13 13 14 17 18 17 7 9 6 1 2 4 3 5 6 10 5 4 5 5 7 6 6 8 5 4 2 2
17 19 18 17 15 15 14 13 14 14 14 16 16 14 13 12 10 11 12 12 14 15 18 17 15 7 7 3 4 3 4 7 4 11 9 6 5 8 6 8 7 5 7 7 7 2 9
18 18 20 20 20 19 19 19 18 16 14 14 15 13 12 11 9 9 9 8 5 4 5 9 6 7 6 4 3 4 6 5 8 7 7 9 8 10 8 8 4 5 9 13 11 9 11
19 20 22 20 20 20 18 18 18 16 15 13 13 11 10 9 9 8 7 2 5 5 11 14 19 20 17 14 6 8 9 9 10 10 6 6 12 9 4 4 7 10 12 14 11 5 8
18 18 20 23 22 20 21 17 15 13 13 13 13 11 9 9 9 8 6 6 8 5 7 7 7 8 5 9 9 15 12 8 11 11 11 13 3 1 8 8 11 12 12 13 11 11 15
22 22 21 21 20 17 16 13 13 9 7 13 14 10 9 6 6 7 4 6 5 2 4 5 4 3 3 5 5 6 10 12 8 11 9 10 13 8 8 11 10 12 7 11 11 8 7
27 24 24 24 22 20 20 17 17 14 10 8 7 5 5 8 4 5 5 5 7 2 5 5 5 4 4 4 1 2 4 8 11 8 6 1 5 7 12 12 4 7 2 5 8 11 13
27 27 27 27 27 23 21 20 21 19 15 12 7 5 6 9 9 10 9 8 5 3 8 4 5 5 6 6 4 7 5 3 2 5 7 9 1 5 6 4 8 1 7 9 8 9 10
31 32 30 31 32 28 26 25 21 19 19 15 11 7 8 9 7 11 12 7 3 7 3 6 4 5 3 6 7 6 9 7 3 5 7 6 13 8 9 9 6 11 6 5 6 6 8
27 30 34 30 29 32 28 27 26 22 18 18 12 9 10 12 11 13 12 3 8 3 6 1 3 6 4 7 5 7 6 6 7 5 2 5 6 10 9 12 4 12 11 6 7 7 9
27 30 31 32 32 31 31 28 27 24 22 19 16 14 14 14 14 16 9 6 10 9 3 4 4 5 5 5 2 6 7 7 3 10 6 4 7 4 7 3 9 7 8 9 15 16 12
37 34 32 35 30 31 35 29 27 26 25 24 19 15 16 15 14 11 6 8 8 1 1 3 9 3 11 7 7 6 9 4 4 1 5 1 9 8 3 5 7 9 3 7 7 9 17
39 36 32 30 34 32 32 31 30 28 28 26 18 10 13 17 15 8 7 9 7 4 1 4 5 5 3 5 4 7 4 6 3 5 3 1 4 5 4 9 16 7 11 9 11 11 13
16 27 28 30 28 32 34 31 33 33 31 30 24 4 18 25 11 8 12 7 4 6 8 4 3 5 9 5 5 6 7 2 4 4 6 4 5 11 15 8 5 9 15 16 12 13 7
25 24 27 26 32 27 35 31 33 39 40 36 19 7 21 27 9 11 12 14 9 5 9 4 7 8 6 11 5 8 8 5 6 3 4 1 7 12 18 12 13 10 13 12 6 3 13
18 20 23 25 26 26 26 32 39 39 35 36 14 5 9 23 16 18 15 16 17 9 14 4 2 5 8 9 10 7 8 4 3 4 3 2 10 13 14 14 12 11 12 14 17 11 17
16 20 21 23 26 27 27 33 33 37 40 38 13 6 11 7 13 14 18 9 19 13 10 13 12 12 10 11 12 14 13 12 12 8 8 5 13 15 18 19 18 20 21 21 22 22 20
22 22 22 23 24 23 29 27 31 33 39 36 12 7 8 12 23 18 16 20 17 13 16 11 13 7 13 18 16 11 8 9 11 9 10 4 11 10 18 16 18 21 24 25 24 26 26
22 23 24 25 25 26 28 30 33 31 31 11 20 20 13 13 17 13 18 19 14 15 16 16 14 11 11 12 10 13 14 16 17 14 12 13 10 9 19 14 10 13 26 25 23 24 22
23 24 25 26 26 26 27 33 32 43 35 34 24 21 15 8 13 19 17 20 19 15 15 10 13 13 11 10 13 17 21 23 24 22 22 19 17 11 15 15 14 16 5 9 13 18 19
21 24 24 25 25 26 27 29 31 36 34 51 33 23 14 9 20 17 18 15 17 17 16 16 16 15 13 12 9 10 11 15 20 24 23 21 18 11 12 15 19 28 11 5 7 20 11
22 22 24 24 25 26 25 27 30 36 32 40 35 32 23 13 16 23 18 18 10 10 10 12 13 10 9 6 6 10 9 11 7 4 5 17 20 14 15 17 20 18 3 6 4 14 10
23 22 22 22 23 25 26 26 28 28 28 30 27 32 20 12 9 24 18 15 17 11 5 4 6 9 12 5 9 12 16 15 18 19 11 5 6 14 16 17 16 11 11 11 8 4 4
23 23 22 23 23 25 26 26 28 27 23 31 29 37 25 9 15 17 19 15 16 19 8 6 6 8 6 6 6 10 10 12 16 20 16 16 10 10 10 12 18 13 10 8 2 5 6
23 23 21 25 24 23 23 23 28 28 25 29 34 33 21 10 7 13 14 14 13 10 13 10 5 4 6 4 6 5 6 4 14 15 13 11 13 10 9 6 2 19 3 5 6 8 8

GFSGBSN_850_spd_135.txt.gz
Wind_Speed
34 33 30 29 29 29 25 25 25 24 23 21 22 22 22 22 21 20 18 18 18 20 18 19 18 18 16 7 13 17 13 10 8 8 9 10 8 7 11 4 5 12 10 4 8 9 12
38 38 34 33 31 33 29 28 27 27 25 23 23 23 22 22 19 18 18 17 17 18 17 17 17 15 10 12 9 14 12 6 3 7 7 5 5 6 10 9 8 4 8 11 12 13 13
32 33 32 29 29 23 33 29 25 25 24 22 21 20 19 19 18 17 17 16 16 16 16 15 16 16 12 16 10 8 8 6 7 4 6 5 5 8 3 8 7 11 12 14 16 13 9
13 13 18 17 14 15 12 12 13 16 17 18 17 17 18 17 17 15 14 13 15 15 15 16 15 11 10 12 12 12 9 12 12 8 5 7 6 9 9 3 9 10 12 13 9 8 7
9 9 10 11 12 13 13 13 11 10 12 13 13 14 15 14 14 13 11 12 14 14 15 16 11 3 9 9 1 2 3 3 4 8 7 5 5 10 6 11 10 13 11 14 10 10 4
15 13 11 11 11 10 11 13 13 13 12 12 13 15 15 13 13 11 9 11 14 16 15 13 9 6 9 3 4 3 3 7 3 8 7 6 7 9 11 12 12 12 9 10 9 6 9
19 19 19 19 17 15 12 13 11 12 13 15 15 15 14 14 11 9 7 7 6 5 8 11 3 10 4 4 4 6 8 6 8 13 9 13 8 12 14 10 12 11 14 16 15 11 13
18 18 18 19 18 17 16 16 15 14 15 15 15 14 13 12 10 7 4 5 5 4 11 16 23 22 18 11 7 13 11 10 14 16 16 6 13 16 10 6 10 13 16 17 16 15 9
21 19 19 20 19 16 16 14 13 16 18 16 15 13 12 11 9 6 5 5 5 6 8 12 17 15 13 14 11 16 16 18 17 16 16 15 10 3 7 10 12 15 16 16 17 16 14
24 19 18 20 24 22 19 18 17 16 14 15 14 13 11 7 2 5 4 6 4 2 5 9 8 6 8 10 8 15 14 17 11 16 15 13 13 13 10 14 13 16 11 8 12 12 11
24 23 22 21 21 23 23 21 18 16 13 11 10 10 10 10 2 2 4 2 5 4 5 8 7 7 8 11 6 8 11 14 18 14 8 8 8 9 12 14 8 11 5 10 11 12 15
28 29 26 24 24 24 24 22 20 20 17 13 10 7 6 7 8 6 6 6 2 4 9 7 7 9 9 12 8 7 7 7 10 13 12 15 3 6 9 4 7 5 9 12 12 12 14
25 26 29 30 28 27 26 23 23 22 21 18 14 10 7 7 5 9 9 6 4 9 4 9 8 10 14 10 11 11 11 12 9 8 13 15 15 10 9 9 9 9 10 8 10 11 14
24 27 28 29 30 30 30 28 24 23 23 22 17 13 11 7 8 10 8 5 9 8 23 3 4 10 12 13 12 12 12 12 11 9 4 8 12 17 12 12 7 10 11 10 15 14 14
28 26 28 30 33 31 33 32 30 28 22 20 21 15 10 12 14 16 11 9 10 20 5 4 6 9 10 8 5 13 15 13 10 12 8 6 7 9 6 7 8 9 9 13 16 17 16
30 28 31 29 31 34 32 35 32 30 28 26 24 17 12 13 18 10 6 16 13 14 7 5 14 9 14 14 12 11 11 6 6 5 10 7 13 10 8 7 11 14 13 8 7 8 20
29 30 31 34 31 34 35 35 36 32 31 32 23 10 13 19 16 12 9 21 18 12 6 9 13 15 12 15 9 11 11 9 3 3 7 8 9 14 11 10 15 13 15 15 17 15 16
29 31 31 36 38 36 37 34 38 36 34 34 18 5 17 22 13 12 14 19 17 14 12 10 7 10 13 8 8 10 9 3 2 7 5 1 5 12 18 16 9 12 17 18 12 13 15
26 26 31 37 37 35 39 40 38 43 39 40 16 7 18 24 10 12 16 23 20 10 12 10 11 11 10 13 9 9 12 2 2 3 3 0 7 11 17 16 18 16 17 19 19 17 19
21 26 24 30 28 34 28 38 37 40 44 41 14 5 9 24 25 19 18 18 22 13 14 15 7 9 10 12 11 7 7 3 1 1 6 2 12 17 15 17 17 13 16 14 13 9 16
19 19 23 21 25 27 26 29 35 35 44 43 17 6 13 10 15 18 17 14 23 20 16 14 13 15 13 13 13 15 15 12 16 13 9 5 14 15 18 20 20 21 22 25 23 24 22
18 17 19 19 18 22 27 26 24 33 50 40 13 6 16 17 28 20 17 21 22 19 19 14 16 14 16 17 14 13 13 15 15 8 11 11 16 14 20 20 21 23 26 27 27 28 27
19 16 16 16 19 21 22 22 28 27 36 15 21 19 14 18 19 16 20 22 21 18 15 23 16 13 15 12 10 11 14 15 14 13 11 13 11 12 18 14 16 16 26 24 26 26 25
19 20 20 20 22 23 23 23 24 27 35 17 17 12 8 8 14 20 18 21 19 16 16 18 17 14 13 7 8 12 16 19 22 20 21 17 18 13 16 16 18 20 22 20 14 18 21
18 19 21 22 23 24 24 23 25 27 25 28 25 20 3 10 21 19 22 14 22 23 15 13 12 5 1 8 5 9 11 17 21 22 23 20 18 14 15 17 20 25 23 13 9 24 21
20 19 20 21 23 23 24 25 24 25 27 26 28 25 19 4 13 21 19 22 14 15 14 18 11 8 7 3 7 14 12 11 9 11 24 22 21 14 15 18 21 25 21 19 6 16 17
21 21 21 21 23 24 24 25 24 24 24 28 31 32 21 10 25 23 15 19 23 15 8 13 16 12 14 8 10 12 15 16 17 17 12 9 8 17 17 17 20 25 26 7 10 12 6
24 23 22 22 22 23 24 24 23 22 23 27 26 26 22 5 16 22 24 17 21 21 9 10 9 11 8 8 6 9 9 13 16 20 20 18 15 11 11 14 20 8 6 12 5 1 2
27 25 23 22 22 22 23 23 22 22 24 26 24 25 24 8 4 12 18 18 20 21 20 15 9 5 12 5 6 5 9 6 13 16 17 16 15 13 15 11 5 5 7 5 4 5 1

GFSGBSN_850_spd_138.txt.gz
Wind_Speed
39 37 35 33 30 29 27 25 24 23 22 21 20 20 21 21 21 20 20 19 18 19 19 20 19 20 16 7 12 13 12 14 7 6 8 10 11 12 11 12 10 10 14 14 6 8 9
45 42 40 36 34 33 31 28 28 28 25 25 23 22 23 23 21 20 19 19 18 18 18 17 17 15 10 13 6 7 11 6 6 6 9 7 9 9 10 14 13 16 11 15 13 14 14
31 39 41 38 38 39 35 33 33 33 29 25 25 23 23 22 21 18 17 18 17 17 17 16 15 15 11 18 7 13 9 6 5 5 8 6 7 7 6 11 10 11 14 16 20 20 17
6 7 15 16 28 37 37 34 28 20 25 24 22 20 20 19 18 17 15 15 16 16 15 15 14 13 10 11 13 15 12 10 11 9 9 9 8 11 14 12 11 13 14 14 15 19 8
9 0 3 6 7 6 9 12 12 11 10 11 14 15 15 15 15 14 13 14 15 15 15 15 12 5 10 9 7 4 5 3 5 9 10 8 6 11 9 9 10 13 12 13 11 14 9
19 20 15 12 11 10 8 10 12 12 10 8 7 10 10 11 13 13 12 12 15 15 14 12 10 9 12 7 6 5 5 6 4 5 6 8 8 8 9 11 11 13 11 11 10 12 10
17 17 19 22 23 21 15 13 12 11 15 14 12 12 10 10 11 10 9 8 9 5 10 11 4 10 1 3 6 6 10 7 8 9 9 15 9 12 17 18 16 14 14 15 15 17 14
15 17 19 21 17 17 16 15 15 13 14 15 16 15 11 12 10 8 6 4 6 5 12 18 25 26 22 11 6 13 12 10 14 13 16 13 14 16 16 17 7 12 14 16 17 16 15
18 16 16 18 20 19 17 15 14 12 12 11 11 11 10 12 9 8 6 8 7 7 9 18 27 26 23 19 15 18 20 17 16 16 17 19 15 6 5 13 11 14 15 16 18 16 15
25 24 23 22 20 20 19 16 15 13 13 15 15 13 11 7 5 2 9 7 4 3 6 7 9 7 14 12 10 24 18 22 14 20 19 17 19 21 14 14 15 18 16 15 11 9 11
22 23 23 24 23 23 23 20 19 17 15 15 13 11 10 9 3 4 2 4 3 1 6 8 10 11 12 18 5 8 18 13 18 18 11 13 9 10 15 18 16 19 8 7 11 12 13
22 29 24 24 22 21 22 23 21 19 16 14 13 12 8 8 14 4 10 6 2 4 10 8 9 10 13 18 12 7 8 11 11 19 18 19 24 9 11 13 9 8 4 11 13 10 12
20 20 23 25 23 23 23 22 23 20 19 17 14 11 9 8 1 12 7 4 3 7 5 6 8 14 15 12 15 10 12 12 10 9 15 19 20 15 14 10 9 8 9 5 6 9 11
18 21 24 24 26 26 25 26 24 24 22 21 18 15 13 12 5 7 8 5 10 9 20 6 0 11 15 14 14 14 13 13 19 15 10 13 14 20 15 16 14 17 13 7 9 10 14
25 23 22 25 25 27 29 28 28 25 24 26 23 19 18 15 13 14 11 8 10 16 7 8 18 11 13 16 10 16 18 15 17 18 13 9 13 14 19 9 13 13 12 14 12 13 12
22 27 27 26 25 26 29 29 30 29 26 25 26 21 22 16 13 15 6 19 17 17 8 9 13 9 10 11 9 8 12 7 11 2 9 13 11 7 11 9 12 8 10 8 4 3 12
27 26 25 30 28 28 30 30 31 32 30 27 26 10 16 22 18 14 10 13 23 24 16 3 11 14 11 10 10 12 14 7 5 7 6 11 11 12 11 6 14 12 12 11 9 9 11
26 27 28 25 31 31 31 31 34 35 33 32 22 6 17 27 10 8 13 11 15 19 21 7 6 8 12 10 14 12 15 7 10 6 6 6 5 9 14 13 14 3 11 11 5 6 2
21 26 27 29 29 30 35 34 35 38 41 38 13 9 22 33 8 10 16 16 22 19 20 14 12 11 10 12 8 10 12 10 5 4 4 9 3 7 13 14 16 15 12 17 15 12 15
19 21 22 26 29 31 35 39 37 41 45 45 15 4 10 25 19 18 19 19 18 29 16 14 13 10 12 13 14 8 11 6 6 4 4 4 8 13 11 15 16 15 15 16 15 10 13
19 19 20 22 26 29 30 39 42 45 42 49 15 6 11 9 14 18 17 15 22 19 27 15 13 17 12 10 12 14 18 17 11 10 5 5 12 15 18 22 21 21 21 22 20 17 17
19 19 21 21 25 21 33 33 31 41 47 40 12 6 17 14 25 21 19 20 23 20 17 19 17 15 15 15 15 15 18 18 17 16 16 13 12 12 18 20 19 22 23 24 23 22 23
19 20 18 20 19 20 20 32 29 34 35 17 28 22 12 14 16 16 21 25 23 21 19 27 19 13 15 13 10 15 9 8 11 10 6 13 4 11 16 17 17 11 22 21 21 20 19
18 18 18 19 19 16 21 17 23 24 33 20 20 11 8 6 11 20 21 25 22 19 16 17 14 9 19 6 6 10 16 16 16 16 18 14 13 9 12 13 16 16 20 20 21 21 21
19 17 17 18 19 15 17 19 18 16 20 26 19 11 4 2 18 14 17 17 23 21 10 12 13 2 1 3 1 5 8 12 18 19 19 15 14 13 13 15 17 25 19 10 14 20 20
21 19 17 17 19 17 17 18 14 14 17 12 14 15 4 2 6 18 16 21 11 11 12 17 9 6 6 2 2 10 11 13 11 21 24 21 18 13 13 16 18 24 16 21 8 16 10
23 21 19 18 18 18 19 18 18 17 13 13 7 15 9 6 11 7 8 7 19 16 8 9 9 8 7 4 5 8 13 15 17 17 17 9 13 15 15 14 14 22 21 26 14 8 6
25 24 21 19 18 17 18 17 17 15 13 16 17 19 13 5 9 9 18 15 18 24 9 12 10 4 3 5 5 7 8 10 15 16 16 15 11 10 8 11 14 5 12 8 3 3 4
27 25 22 20 19 18 17 18 16 15 14 16 14 13 15 17 8 10 14 16 22 14 18 22 9 15 9 5 5 3 6 5 10 11 11 13 14 12 12 9 2 7 14 17 13 9 7

GFSGBSN_850_spd_141.txt.gz
Wind_Speed
35 35 33 33 32 31 29 28 26 24 23 22 21 21 20 20 19 20 20 20 20 19 20 20 20 20 17 7 12 11 12 13 8 3 5 6 10 11 5 10 15 2 3 11 8 3 3
42 41 39 38 36 34 33 31 28 27 26 24 24 24 23 23 21 21 21 20 19 19 19 19 18 17 14 7 6 11 13 6 2 3 7 11 8 10 9 9 6 14 13 14 14 14 11
35 34 35 45 39 38 37 36 34 33 28 27 28 26 25 23 22 21 20 20 19 17 17 16 16 18 17 22 10 12 14 10 7 7 7 4 4 2 13 8 11 9 7 8 17 17 9
10 25 27 30 30 30 31 27 24 32 33 31 29 27 23 21 20 18 18 18 18 17 16 15 15 15 13 9 12 17 16 16 9 10 10 10 5 6 6 10 10 5 3 2 10 14 11
1 2 8 11 14 14 5 1 4 6 11 11 10 12 15 16 17 15 15 15 16 18 16 16 14 6 15 9 12 7 8 8 7 7 8 7 7 5 6 4 4 4 5 7 11 12 7
11 13 7 6 3 0 2 7 11 13 12 7 5 7 8 9 11 12 12 12 14 17 16 16 14 9 12 12 6 7 4 7 5 4 5 7 5 2 2 3 5 6 5 6 5 4 4
14 14 13 17 20 16 19 19 22 15 9 10 13 13 11 11 10 8 8 7 8 5 6 12 5 11 5 6 7 12 13 9 12 8 5 12 3 7 11 11 10 11 7 6 6 4 2
16 15 12 12 12 14 14 16 13 13 12 12 14 16 17 16 12 8 8 3 6 6 12 20 28 30 28 17 8 11 12 12 11 8 8 4 9 12 12 12 10 6 4 7 7 11 7
16 15 16 15 16 13 11 12 12 11 10 10 8 10 9 9 5 3 6 4 12 17 7 14 31 30 36 23 27 21 19 22 6 9 11 13 9 15 17 12 7 5 4 6 9 10 7
20 23 19 14 15 18 16 16 13 11 11 9 9 9 7 5 3 1 4 5 10 10 4 7 7 8 22 23 8 33 26 21 8 8 7 10 18 17 12 7 7 10 5 8 6 5 3
21 13 23 21 17 20 18 17 16 15 14 11 12 11 9 5 6 7 1 7 11 0 4 0 5 6 12 18 1 7 31 18 14 9 7 6 4 7 7 4 5 7 8 1 3 5 6
22 22 20 19 22 22 21 20 20 18 15 12 11 14 13 10 11 2 5 6 2 2 8 5 7 6 7 12 5 1 3 11 4 2 11 8 20 3 2 5 6 1 3 4 2 2 5
18 16 19 22 20 23 22 21 21 19 16 14 14 13 12 13 7 3 6 5 2 4 8 7 5 8 13 9 10 6 5 4 6 4 7 7 15 14 6 3 1 4 5 2 2 3 7
15 17 18 19 16 24 19 19 19 19 18 17 16 15 15 17 7 4 11 2 8 9 11 13 5 12 11 9 9 13 9 6 10 7 2 7 5 16 12 13 8 8 9 6 5 4 4
20 21 17 17 20 20 22 22 22 20 21 20 20 20 19 17 15 11 8 6 6 8 4 8 10 12 6 13 12 13 13 11 9 17 5 4 9 4 8 7 10 4 7 13 5 2 2
19 19 22 22 19 20 22 25 24 24 24 24 24 22 26 19 16 17 5 17 11 9 11 7 3 6 13 11 13 9 13 5 2 5 3 4 5 6 5 10 8 7 1 3 3 2 4
20 22 23 21 23 24 22 24 25 26 24 24 27 12 15 20 19 17 10 10 14 24 26 7 6 7 5 7 7 5 4 9 6 4 8 6 1 8 5 3 1 0 1 2 1 3 4
20 21 23 25 24 24 28 26 26 25 24 25 24 4 15 26 7 7 11 8 8 22 16 8 3 3 4 5 5 3 4 4 9 7 4 4 1 2 4 3 7 5 3 5 4 6 2
18 19 18 22 25 26 26 30 28 27 29 31 11 10 26 33 5 6 7 9 17 17 13 4 6 4 3 3 4 4 4 4 7 6 3 4 2 0 7 4 3 2 7 4 6 2 8
17 18 18 18 23 26 28 29 31 31 31 35 12 5 11 23 15 16 10 12 11 12 23 22 10 7 7 10 3 5 5 1 3 5 4 2 2 2 3 7 8 7 12 10 6 2 5
18 18 19 19 20 22 26 28 31 32 34 37 15 5 11 5 17 9 10 7 17 17 21 16 11 6 8 4 5 7 5 5 6 9 6 5 5 5 10 13 10 12 15 16 13 10 8
18 19 19 19 20 21 23 27 31 30 35 45 18 6 10 9 20 19 12 14 19 15 17 17 13 10 10 9 6 7 10 13 11 4 7 4 3 3 6 8 10 13 17 17 17 15 14
19 19 20 20 19 20 22 25 24 30 30 32 22 23 10 14 15 14 18 22 17 14 16 28 17 9 10 6 2 4 5 2 6 1 2 3 3 4 9 2 5 6 19 14 16 13 11
21 20 19 18 18 17 22 20 23 27 33 32 21 21 7 3 11 19 20 22 18 17 12 7 5 6 12 7 9 6 2 6 11 8 8 5 3 4 3 2 5 12 4 8 10 12 9
22 20 19 18 17 17 17 23 18 19 18 28 24 14 14 3 18 17 11 13 25 24 16 11 21 10 5 11 2 1 2 3 6 10 8 6 4 3 4 8 10 18 6 1 6 17 14
24 22 21 18 17 17 16 20 16 19 12 17 19 22 7 4 6 21 15 25 9 11 2 8 16 19 14 3 2 5 4 3 3 4 11 12 8 5 5 7 7 23 5 11 4 13 2
27 23 21 18 16 16 15 16 11 10 11 8 6 17 6 2 2 16 4 9 2 8 4 10 8 4 6 2 2 2 3 0 4 5 4 4 3 8 11 9 8 12 6 18 7 10 5
29 26 23 20 17 15 15 14 11 11 11 12 7 13 6 3 2 4 5 9 7 2 3 13 7 1 2 3 3 3 3 5 4 7 7 7 4 3 3 4 12 3 2 6 5 3 7
30 27 25 21 18 16 14 14 13 12 12 12 6 7 8 6 4 4 3 4 14 18 17 7 10 10 9 3 1 2 2 1 1 3 0 4 4 3 5 5 7 5 5 17 15 10 7